JA3VQW-13 Weather Reports


time (UTC)temp
C
wind
direction
speed
KPH
gust
KPH
rain 1hr
cm
rain 24hr
cm
rain mn
cm
humidity
%
barometer
mb
20260902120758 30 135 1.6 4.8 0.00 0.10 0.00 45 1004.0
20260902120513 30 135 0.0 8.0 0.00 0.10 0.00 44 1004.0
20260902115012 30 135 0.0 0.0 0.00 0.10 0.00 42 1004.0
20260902113757 30 135 0.0 0.0 0.00 0.10 0.00 43 1004.0
20260902113512 30 135 0.0 0.0 0.00 0.10 0.00 43 1004.0
20260902112013 30 135 0.0 0.0 0.00 0.33 0.00 42 1004.0
20260902110757 30 135 0.0 0.0 0.00 0.97 0.00 42 1004.0
20260902110512 30 135 0.0 0.0 0.00 0.97 0.00 42 1004.0
20260902105012 30 135 0.0 0.0 0.00 0.97 0.00 41 1003.0
20260902103756 31 135 0.0 0.0 0.00 1.07 0.00 39 1003.0
20260902103511 31 135 0.0 0.0 0.00 1.07 0.00 38 1003.0
20260902102012 31 135 0.0 0.0 0.00 1.07 0.00 38 1004.0
20260902100757 31 135 0.0 0.0 0.00 1.07 0.00 37 1004.0
20260902100512 31 135 0.0 0.0 0.00 1.07 0.00 36 1004.0
20260902095012 31 135 0.0 0.0 0.00 1.07 0.00 35 1003.0
20260902093756 31 135 0.0 0.0 0.00 1.07 0.00 34 1003.0
20260902093511 31 135 0.0 0.0 0.00 1.07 0.00 34 1003.0
20260902092012 31 135 0.0 0.0 0.00 1.07 0.00 35 1003.0
20260902090758 31 135 0.0 4.8 0.00 1.07 0.00 35 1003.0
20260902090513 31 135 0.0 0.0 0.00 1.07 0.00 35 1003.0
20260902085012 31 135 0.0 9.7 0.00 1.07 0.00 35 1003.0
20260902083756 31 135 4.8 9.7 0.00 1.07 0.00 34 1003.0
20260902083512 31 135 8.0 9.7 0.00 1.07 0.00 34 1003.0
20260902082011 31 135 0.0 3.2 0.00 1.07 0.00 35 1003.0
20260902080758 31 135 3.2 4.8 0.00 1.07 0.00 35 1003.0
20260902080513 31 135 0.0 3.2 0.00 1.07 0.00 36 1003.0
20260902075012 31 135 3.2 3.2 0.00 1.07 0.00 38 1004.0
20260902073756 31 135 0.0 4.8 0.00 1.07 0.00 38 1004.0
20260902073512 31 135 3.2 3.2 0.00 1.07 0.00 38 1004.0
20260902072014 31 135 0.0 4.8 0.00 1.07 0.00 41 1003.0
20260902070757 31 135 8.0 14.5 0.00 1.07 0.00 40 1003.0
20260902070512 31 135 3.2 12.9 0.00 1.07 0.00 40 1003.0
20260902065011 32 135 4.8 4.8 0.00 1.07 0.00 32 1003.0
20260902063756 33 135 1.6 4.8 0.00 1.07 0.00 31 1003.0
20260902063511 33 135 0.0 4.8 0.00 1.07 0.00 31 1003.0
20260902062012 33 135 1.6 3.2 0.00 1.07 0.00 29 1003.0
20260902060758 34 135 0.0 3.2 0.00 1.07 0.00 28 1003.0
20260902060512 34 135 0.0 0.0 0.00 1.07 0.00 28 1003.0
20260902055013 34 135 0.0 3.2 0.00 1.07 0.00 27 1003.0
20260902053757 34 135 0.0 3.2 0.00 1.07 0.00 28 1003.0
20260902053512 34 135 0.0 3.2 0.00 1.07 0.00 28 1003.0
20260902050757 35 315 0.0 3.2 0.00 1.07 0.00 27 1004.0
20260902050512 35 315 0.0 0.0 0.00 1.07 0.00 27 1004.0
20260902045014 36 315 1.6 3.2 0.00 1.07 0.00 26 1003.0
20260902043759 36 315 0.0 0.0 0.00 1.07 0.00 21 1003.0
20260902043514 36 315 0.0 0.0 0.00 1.07 0.00 21 1003.0
20260902042015 35 315 0.0 0.0 0.00 1.07 0.00 25 1004.0
20260902040800 34 315 0.0 0.0 0.00 1.07 0.00 23 1004.0
20260902040516 34 315 3.2 8.0 0.00 1.07 0.00 23 1004.0
20260902033759 35 315 3.2 4.8 0.00 1.07 0.00 21 1004.0
20260902033515 35 315 0.0 4.8 0.00 1.07 0.00 22 1004.0
20260902030800 35 315 0.0 4.8 0.00 1.07 0.00 24 1004.0
20260902030515 35 315 0.0 3.2 0.00 1.07 0.00 26 1004.0
20260902023759 33 315 3.2 8.0 0.00 1.07 0.00 29 1004.0
20260902023515 33 315 0.0 0.0 0.00 1.07 0.00 30 1004.0
20260902020759 32 315 0.0 3.2 0.00 1.07 0.00 32 1005.0
20260902020514 32 315 1.6 4.8 0.00 1.07 0.00 31 1005.0
20260902015014 33 315 0.0 0.0 0.00 1.07 0.00 29 1005.0
20260902013758 34 315 0.0 0.0 0.00 1.07 0.00 28 1005.0
20260902012013 33 315 0.0 0.0 0.00 1.07 0.00 31 1005.0
20260902010759 33 315 0.0 0.0 0.00 1.07 0.00 33 1005.0
20260902010515 32 315 0.0 0.0 0.00 1.07 0.00 33 1005.0
20260902005014 32 315 0.0 11.3 0.00 1.07 0.00 34 1005.0
20260902003758 32 315 0.0 0.0 0.00 1.07 0.00 38 1005.0
20260902000759 31 315 0.0 0.0 0.00 1.07 0.00 42 1005.0
20260901233759 30 315 0.0 4.8 0.00 1.07 0.00 45 1004.0
20260901233516 30 315 0.0 0.0 0.00 1.07 0.00 46 1004.0
20260901230758 29 315 0.0 0.0 0.00 1.07 0.00 48 1004.0
20260901230513 29 315 0.0 0.0 0.00 1.07 0.00 48 1004.0
20260901225013 29 315 0.0 0.0 0.00 1.07 0.00 48 1005.0
20260901223759 28 315 0.0 0.0 0.00 1.07 0.00 50 1005.0
20260901220758 28 315 0.0 0.0 0.00 1.07 0.00 56 1005.0
20260901213758 27 315 0.0 0.0 0.00 1.07 0.00 60 1005.0
20260901210758 26 225 0.0 0.0 0.00 1.07 0.00 65 1005.0
20260901203759 27 225 0.0 0.0 0.00 1.07 0.00 63 1005.0
20260901200759 26 225 0.0 0.0 0.00 1.07 0.00 65 1005.0
20260901193758 26 225 0.0 0.0 0.00 1.07 0.00 66 1005.0
20260901190758 26 225 0.0 0.0 0.00 1.07 0.00 65 1005.0
20260901183758 26 225 0.0 0.0 0.00 1.07 0.00 67 1005.0
20260901180758 26 225 0.0 0.0 0.00 1.07 0.00 65 1005.0
20260901173758 27 225 0.0 0.0 0.00 1.07 0.00 63 1005.0
20260901170758 27 225 0.0 0.0 0.00 1.07 0.00 62 1005.0
20260901163757 27 225 0.0 0.0 0.00 1.07 0.00 63 1005.0
20260901160758 27 225 0.0 0.0 0.00 1.07 0.00 60 1005.0
20260901153758 27 225 0.0 0.0 0.00 1.07 0.00 61 1005.0
20260901150758 27 135 0.0 0.0 0.00 1.07 0.00 65 1006.0
20260901143758 27 135 0.0 0.0 0.00 1.07 1.07 65 1006.0
20260901140758 27 135 0.0 0.0 0.00 1.07 1.07 65 1006.0
20260901133759 27 135 0.0 0.0 0.00 1.07 1.07 72 1006.0
20260901132013 27 135 0.0 0.0 0.10 1.07 1.07 75 1006.0
20260901130758 27 135 0.0 0.0 0.10 1.07 1.07 77 1006.0
20260901125012 27 135 0.0 0.0 0.10 1.07 1.07 79 1006.0
20260901123757 27 135 0.0 0.0 0.10 1.07 1.07 79 1006.0
20260901122014 27 135 0.0 0.0 0.23 0.97 0.97 79 1006.0